This is the latest recevied weather packets stored in our database for station/object DB0SVX. If no packets are shown the sender has not sent any weather packets the latest 10 day(s).
| Time | Temp. | Humidity | Pressure | Rain* | Wind** | Luminosity | Snow |
|---|---|---|---|---|---|---|---|
| 1777872321 | 10.56° C | 47% | 1013.5 hPa | 0 mm | - | - | - |
| 1777871421 | 10° C | 48% | 1013.5 hPa | 0 mm | - | - | - |
| 1777870521 | 10° C | 48% | 1013.4 hPa | 0 mm | - | - | - |
| 1777869621 | 8.89° C | 49% | 1013.2 hPa | 0 mm | - | - | - |
| 1777868720 | 8.89° C | 49% | 1013.4 hPa | 0 mm | - | - | - |
| 1777867820 | 8.33° C | 50% | 1013.5 hPa | 0 mm | - | - | - |
| 1777866920 | 8.89° C | 51% | 1013.7 hPa | 0 mm | - | - | - |
| 1777866021 | 9.44° C | 51% | 1013.7 hPa | 0 mm | - | - | - |
| 1777865121 | 10° C | 51% | 1013.7 hPa | 0 mm | - | - | - |
| 1777864221 | 10.56° C | 51% | 1013.7 hPa | 0 mm | - | - | - |
| 1777863320 | 11.11° C | 50% | 1013.7 hPa | 0 mm | - | - | - |
| 1777862421 | 11.11° C | 50% | 1013.7 hPa | 0 mm | - | - | - |
| 1777861521 | 11.67° C | 50% | 1013.7 hPa | 0 mm | - | - | - |
| 1777860620 | 11.11° C | 50% | 1013.7 hPa | 0 mm | - | - | - |
| 1777859721 | 11.11° C | 50% | 1013.9 hPa | 0 mm | - | - | - |
| 1777858820 | 11.11° C | 50% | 1013.9 hPa | 0 mm | - | - | - |
| 1777857920 | 11.11° C | 50% | 1013.9 hPa | 0 mm | - | - | - |
| 1777857022 | 11.11° C | 50% | 1013.9 hPa | 0 mm | - | - | - |
| 1777856120 | 10.56° C | 51% | 1013.9 hPa | 0 mm | - | - | - |
| 1777855220 | 10.56° C | 51% | 1013.9 hPa | 0 mm | - | - | - |
| 1777854320 | 10.56° C | 51% | 1014 hPa | 0 mm | - | - | - |
| 1777853420 | 11.11° C | 51% | 1014 hPa | 0 mm | - | - | - |
| 1777852520 | 11.11° C | 51% | 1014.2 hPa | 0 mm | - | - | - |
| 1777851620 | 11.67° C | 50% | 1014.2 hPa | 0 mm | - | - | - |
| 1777850720 | 12.22° C | 50% | 1014.4 hPa | 0 mm | - | - | - |
* Rain latest hour (hover to see other rain measurements)
** Current wind speed in m/s (hover to see current wind gust speed)